Regional Weather Roundup
Issued by NWS

Home | Current Version | Previous Version | Graphics & Text | Print | Product List | Glossary On
Versions: 1 2 3 4 5 6 7 8 9 10 11 12 13 14 15 16 17 18 19 20 21 22 23 24 25 26 27 28 29 30 31 32 33 34 35 36 37 38 39 40 41 42 43 44 45 46 47 48 49 50
000
ASUS43 KOAX 262110
RWRNE

WEATHER ROUNDUP FOR NEBRASKA
NATIONAL WEATHER SERVICE OMAHA NE
400 PM CDT WED APR 26 2017

NOTES: SATELLITE DATA IS BEING USED TO AUGMENT CLOUD COVER ABOVE
       12000 FEET.
       "FAIR" INDICATES FEW OR NO CLOUDS BELOW 12,000 FEET WITH NO
       SIGNIFICANT WEATHER AND/OR OBSTRUCTIONS TO VISIBILITY.

  * THESE STATIONS DO NOT REPORT WEATHER SUCH AS RAIN...SNOW OR FOG.

NEZ001>004-019>022-054>056-262200-
NEBRASKA PANHANDLE

CITY           SKY/WX    TMP DP  RH WIND       PRES   REMARKS
SCOTTSBLUFF    MOSUNNY   58  30  34 NW10      29.68F
ALLIANCE       MOSUNNY   50  35  56 N9        29.70F
CHADRON        MOSUNNY   45  33  63 MISG      29.74F
KIMBALL        CLOUDY    53  27  35 CALM      29.71S
SIDNEY         MOSUNNY   56  32  40 NW9       29.70F
$$

NEZ057>060-069>072-079>082-262200-
SOUTHWEST NEBRASKA

CITY           SKY/WX    TMP DP  RH WIND       PRES   REMARKS
NORTH PLATTE   SUNNY     51  31  46 NW12G20   29.72F
IMPERIAL       SUNNY     56  31  38 NW12G21   29.71F
LEXINGTON      PTSUNNY   49  33  54 N13G22    29.73S
MCCOOK         SUNNY     56  31  38 N16G26    29.72F
OGALLALA       SUNNY     56  29  36 N10G17    29.71F
$$

NEZ005>010-023>029-035>040-094-262200-
NORTH CENTRAL NEBRASKA

CITY           SKY/WX    TMP DP  RH WIND       PRES   REMARKS
VALENTINE      CLOUDY    40  26  57 NW14      29.76F WCI  32
AINSWORTH      CLOUDY    40  31  68 NW22      29.75S WCI  30
BROKEN BOW     CLOUDY    44  30  57 N17G25    29.73S
O`NEILL        CLOUDY    41  29  62 NW18G25   29.72F
ORD            CLOUDY    41  30  65 N18       29.73R
THEDFORD       MOSUNNY   44  30  57 N12G21    29.74F
$$

NEZ041-046>049-061>064-073>077-083>087-262200-
SOUTH CENTRAL NEBRASKA

CITY           SKY/WX    TMP DP  RH WIND       PRES   REMARKS
GRAND ISLAND   CLOUDY    44  32  62 N21G26    29.73S
AURORA         CLOUDY    45  32  59 N21G26    29.71F
HASTINGS       CLOUDY    46  31  55 N22       29.73F
HEBRON         CLOUDY    47  33  57 N15G21    29.69F
HOLDREGE       CLOUDY    47  31  53 N10G21    29.73S
KEARNEY *      CLOUDY    45  28  53 N17       29.75S
YORK           CLOUDY    45  32  61 N14G25    29.71R
$$

NEZ011>018-030>034-042>045-262200-
NORTHEAST NEBRASKA

CITY           SKY/WX    TMP DP  RH WIND       PRES   REMARKS
NORFOLK        CLOUDY    41  31  67 NW17G29   29.67F
ALBION         CLOUDY    43  32  65 NW16G25   29.71S
BLAIR          CLOUDY    41  33  74 NW20G29   29.66S
FREMONT        CLOUDY    42  33  72 NW22      29.69S
TEKAMAH        CLOUDY    43  32  65 NW20      29.68S
WAYNE          CLOUDY    40  33  75 NW18G25   29.68S WCI  31
$$

NEZ050>053-065>068-078-088>093-262200-
SOUTHEAST NEBRASKA

CITY           SKY/WX    TMP DP  RH WIND       PRES   REMARKS
LINCOLN        CLOUDY    45  33  63 N18       29.70S
OMAHA EPPLEY   CLOUDY    43  33  68 N20G28    29.67R
BEATRICE       CLOUDY    44  34  68 N20G26    29.69S
FALLS CITY     CLOUDY    47  35  63 NW15G26   29.64S
NEBRASKA CITY  CLOUDY    43  30  60 N15       29.67S
PLATTSMOUTH    CLOUDY    43  31  62 NW16G25   29.66F
$$

NEZ044-045-051>053-067-262200-
OMAHA AREA

CITY           SKY/WX    TMP DP  RH WIND       PRES   REMARKS
OMAHA EPPLEY   CLOUDY    43  33  68 N20G28    29.67R
BLAIR          CLOUDY    41  33  74 NW20G29   29.66S
FREMONT        CLOUDY    42  33  72 NW22      29.69S
MILLARD        CLOUDY    44  35  69 NW10G20   29.67F
OFFUTT AFB     CLOUDY    43  32  67 NW17G23   29.66S
PLATTSMOUTH    CLOUDY    43  31  62 NW16G25   29.66F
WAHOO          CLOUDY    43  32  66 NW22G31   29.69R
$$




USA.gov is the U.S. government's official web portal to all federal, state and local government web resources and services.